AKJ1801 VIDP-VECC

Flight info

Callsign AKJ1801
Flight time 1h 47m
Altitude 39000
Route ALI G452 LKN W45 PPT W52 SEGMO SEGMO2A
Aircraft B38M/M-SDE1FGHILORVWXY/HB1

Departure

Time 2026-04-23 06:18
Airport Indira Gandhi International Airport (VIDP)

Arrival

Time 2026-04-23 08:06
Airport Netaji Subhash Chandra Bose International Airport (VECC)
Time Latitude Longitude Altitude Speed Heading
2026-04-23 06:18 28.53501 77.12555 6043 ft 285 kts 86°
2026-04-23 06:18 28.53177 77.14764 7028 ft 288 kts 114°
2026-04-23 06:19 28.52051 77.16657 7972 ft 292 kts 130°
2026-04-23 06:19 28.50803 77.18508 8963 ft 297 kts 128°
2026-04-23 06:19 28.49543 77.20397 9948 ft 302 kts 128°
2026-04-23 06:19 28.48246 77.22326 10690 ft 315 kts 129°
2026-04-23 06:20 28.46877 77.24354 11302 ft 330 kts 128°
2026-04-23 06:20 28.45455 77.26457 12017 ft 339 kts 129°
2026-04-23 06:20 28.44030 77.28563 12917 ft 342 kts 129°
2026-04-23 06:20 28.42568 77.30721 13718 ft 347 kts 129°
2026-04-23 06:21 28.41084 77.32910 14432 ft 352 kts 129°
2026-04-23 06:21 28.39564 77.35151 15184 ft 355 kts 129°
2026-04-23 06:21 28.38071 77.37352 15898 ft 359 kts 129°
2026-04-23 06:21 28.36540 77.39607 16602 ft 362 kts 129°
2026-04-23 06:22 28.34994 77.41883 17301 ft 366 kts 129°
2026-04-23 06:22 28.33432 77.44182 17991 ft 369 kts 129°
2026-04-23 06:22 28.31856 77.46500 18594 ft 373 kts 129°
2026-04-23 06:22 28.30308 77.48774 19178 ft 376 kts 129°
2026-04-23 06:23 28.28705 77.51130 19768 ft 379 kts 129°
2026-04-23 06:23 28.27084 77.53510 20342 ft 383 kts 129°
2026-04-23 06:23 28.25449 77.55909 20925 ft 386 kts 129°
2026-04-23 06:23 28.23801 77.58327 21496 ft 389 kts 129°
2026-04-23 06:24 28.22139 77.60763 22053 ft 392 kts 129°
2026-04-23 06:24 28.20460 77.63221 22608 ft 396 kts 129°
2026-04-23 06:24 28.18772 77.65693 23171 ft 399 kts 129°
2026-04-23 06:24 28.17065 77.68190 23672 ft 402 kts 130°
2026-04-23 06:25 28.15348 77.70701 24115 ft 405 kts 129°
2026-04-23 06:25 28.13614 77.73236 24556 ft 408 kts 129°
2026-04-23 06:25 28.11866 77.75790 24993 ft 412 kts 129°
2026-04-23 06:25 28.10105 77.78360 25422 ft 415 kts 129°
2026-04-23 06:26 28.08330 77.80949 25842 ft 418 kts 130°
2026-04-23 06:26 28.06540 77.83560 26259 ft 421 kts 130°
2026-04-23 06:26 28.04735 77.86189 26676 ft 424 kts 130°
2026-04-23 06:26 28.02919 77.88833 27100 ft 427 kts 130°
2026-04-23 06:27 28.01092 77.91493 27498 ft 430 kts 130°
2026-04-23 06:27 27.99249 77.94174 27893 ft 433 kts 130°
2026-04-23 06:27 27.97392 77.96873 28290 ft 436 kts 130°
2026-04-23 06:27 27.95523 77.99587 28683 ft 439 kts 130°
2026-04-23 06:28 27.93640 78.02321 29070 ft 442 kts 130°
2026-04-23 06:28 27.91745 78.05070 29459 ft 444 kts 130°
2026-04-23 06:28 27.89839 78.07834 29822 ft 447 kts 130°
2026-04-23 06:28 27.87923 78.10611 30161 ft 450 kts 130°
2026-04-23 06:29 27.85994 78.13405 30503 ft 452 kts 130°
2026-04-23 06:29 27.84059 78.16209 30839 ft 453 kts 129°
2026-04-23 06:29 27.82430 78.19269 31177 ft 457 kts 114°
2026-04-23 06:29 27.81198 78.22591 31499 ft 459 kts 115°
2026-04-23 06:30 27.79924 78.25906 31804 ft 462 kts 115°
2026-04-23 06:30 27.78659 78.29246 32149 ft 463 kts 114°
2026-04-23 06:30 27.77397 78.32600 32468 ft 465 kts 114°
2026-04-23 06:30 27.76130 78.35969 32792 ft 467 kts 114°
2026-04-23 06:31 27.74861 78.39346 33115 ft 469 kts 114°
2026-04-23 06:31 27.73583 78.42744 33423 ft 471 kts 114°
2026-04-23 06:31 27.72301 78.46149 33748 ft 472 kts 114°
2026-04-23 06:31 27.71018 78.49553 34091 ft 472 kts 114°
2026-04-23 06:32 27.69733 78.52958 34420 ft 471 kts 114°
2026-04-23 06:32 27.68450 78.56356 34735 ft 471 kts 114°
2026-04-23 06:32 27.67166 78.59756 35040 ft 471 kts 114°
2026-04-23 06:32 27.65882 78.63151 35362 ft 470 kts 115°
2026-04-23 06:33 27.64597 78.66543 35682 ft 470 kts 115°
2026-04-23 06:33 27.63316 78.69926 35965 ft 470 kts 115°
2026-04-23 06:33 27.62031 78.73314 36240 ft 469 kts 115°
2026-04-23 06:33 27.60747 78.76698 36508 ft 469 kts 115°
2026-04-23 06:34 27.59464 78.80076 36771 ft 469 kts 115°
2026-04-23 06:34 27.58178 78.83458 37032 ft 469 kts 115°
2026-04-23 06:34 27.56892 78.86837 37278 ft 469 kts 115°
2026-04-23 06:34 27.56040 78.89076 37444 ft 469 kts 115°
2026-04-23 06:35 27.54317 78.93597 37752 ft 469 kts 115°
2026-04-23 06:35 27.53028 78.96976 37836 ft 470 kts 115°
2026-04-23 06:35 27.50447 79.03731 37808 ft 468 kts 115°
2026-04-23 06:36 27.48306 79.09329 37811 ft 469 kts 115°
2026-04-23 06:36 27.45723 79.16068 37814 ft 469 kts 115°
2026-04-23 06:37 27.43136 79.22806 37806 ft 469 kts 115°
2026-04-23 06:37 27.40545 79.29546 37809 ft 469 kts 115°
2026-04-23 06:38 27.37950 79.36284 37805 ft 469 kts 116°
2026-04-23 06:38 27.35351 79.43023 37807 ft 470 kts 115°
2026-04-23 06:39 27.32716 79.49738 37806 ft 469 kts 116°
2026-04-23 06:39 27.30030 79.56432 37807 ft 470 kts 116°
2026-04-23 06:40 27.27343 79.63133 37807 ft 470 kts 116°
2026-04-23 06:40 27.24654 79.69828 37803 ft 470 kts 116°
2026-04-23 06:41 27.21978 79.76480 37806 ft 470 kts 116°
2026-04-23 06:41 27.19281 79.83175 37803 ft 471 kts 117°
2026-04-23 06:42 27.16579 79.89870 37802 ft 471 kts 117°
2026-04-23 06:42 27.13871 79.96568 37801 ft 471 kts 117°
2026-04-23 06:43 27.11141 80.03311 37806 ft 471 kts 117°
2026-04-23 06:43 27.08441 80.09965 37804 ft 472 kts 117°
2026-04-23 06:44 27.05718 80.16667 37803 ft 472 kts 117°
2026-04-23 06:44 27.02993 80.23366 37804 ft 472 kts 117°
2026-04-23 06:45 27.00261 80.30068 37800 ft 473 kts 117°
2026-04-23 06:45 26.97525 80.36769 37803 ft 473 kts 117°
2026-04-23 06:46 26.94785 80.43469 37796 ft 473 kts 117°
2026-04-23 06:46 26.92042 80.50164 37797 ft 473 kts 117°
2026-04-23 06:47 26.89292 80.56868 37791 ft 473 kts 117°
2026-04-23 06:47 26.86540 80.63564 37784 ft 473 kts 117°
2026-04-23 06:48 26.83784 80.70260 37781 ft 474 kts 117°
2026-04-23 06:48 26.81020 80.76962 37776 ft 474 kts 117°
2026-04-23 06:49 26.78254 80.83664 37772 ft 475 kts 118°
2026-04-23 06:49 26.75609 80.90431 37759 ft 477 kts 109°
2026-04-23 06:50 26.73735 80.97572 37773 ft 479 kts 109°
2026-04-23 06:50 26.71852 81.04721 37776 ft 480 kts 109°
2026-04-23 06:51 26.69966 81.11880 37773 ft 480 kts 109°
2026-04-23 06:51 26.68075 81.19045 37780 ft 481 kts 109°
2026-04-23 06:52 26.66177 81.26221 37778 ft 482 kts 109°
2026-04-23 06:52 26.64272 81.33403 37774 ft 482 kts 109°
2026-04-23 06:53 26.62361 81.40594 37782 ft 483 kts 109°
2026-04-23 06:53 26.60443 81.47796 37770 ft 484 kts 109°
2026-04-23 06:54 26.58519 81.55003 37774 ft 485 kts 110°
2026-04-23 06:54 26.56588 81.62221 37779 ft 485 kts 110°
2026-04-23 06:55 26.54651 81.69446 37775 ft 486 kts 110°
2026-04-23 06:55 26.52706 81.76686 37775 ft 487 kts 110°
2026-04-23 06:56 26.50754 81.83930 37767 ft 488 kts 110°
2026-04-23 06:56 26.48797 81.91183 37770 ft 488 kts 110°
2026-04-23 06:57 26.46832 81.98449 37782 ft 489 kts 110°
2026-04-23 06:57 26.44862 82.05715 37773 ft 490 kts 110°
2026-04-23 06:58 26.42886 82.12988 37781 ft 490 kts 110°
2026-04-23 06:58 26.40904 82.20265 37771 ft 490 kts 110°
2026-04-23 06:59 26.38918 82.27542 37780 ft 491 kts 110°
2026-04-23 06:59 26.36926 82.34827 37778 ft 491 kts 110°
2026-04-23 07:00 26.34927 82.42120 37780 ft 492 kts 111°
2026-04-23 07:00 26.32924 82.49413 37781 ft 492 kts 111°
2026-04-23 07:01 26.30925 82.56673 37782 ft 493 kts 111°
2026-04-23 07:01 26.28908 82.63983 37781 ft 494 kts 111°
2026-04-23 07:02 26.26884 82.71304 37766 ft 495 kts 111°
2026-04-23 07:02 26.24853 82.78634 37790 ft 495 kts 111°
2026-04-23 07:03 26.22817 82.85966 37778 ft 496 kts 111°
2026-04-23 07:03 26.20772 82.93313 37781 ft 497 kts 111°
2026-04-23 07:04 26.18722 83.00668 37781 ft 498 kts 112°
2026-04-23 07:04 26.16665 83.08034 37776 ft 498 kts 112°
2026-04-23 07:05 26.14615 83.15415 37778 ft 500 kts 112°
2026-04-23 07:05 26.12566 83.22809 37777 ft 500 kts 112°
2026-04-23 07:06 26.10510 83.30209 37775 ft 501 kts 112°
2026-04-23 07:06 26.08445 83.37623 37775 ft 502 kts 112°
2026-04-23 07:07 26.06374 83.45046 37775 ft 503 kts 112°
2026-04-23 07:07 26.04294 83.52482 37778 ft 504 kts 112°
2026-04-23 07:08 26.02203 83.59922 37774 ft 505 kts 112°
2026-04-23 07:08 26.00095 83.67368 37776 ft 506 kts 113°
2026-04-23 07:09 25.97994 83.74782 37772 ft 507 kts 113°
2026-04-23 07:09 25.95871 83.82258 37775 ft 508 kts 113°
2026-04-23 07:10 25.93739 83.89745 37776 ft 509 kts 113°
2026-04-23 07:10 25.91599 83.97246 37771 ft 510 kts 113°
2026-04-23 07:11 25.89453 84.04753 37771 ft 511 kts 113°
2026-04-23 07:12 25.86217 84.16038 37764 ft 512 kts 114°
2026-04-23 07:12 25.84050 84.23578 37767 ft 513 kts 114°
2026-04-23 07:13 25.81875 84.31125 37763 ft 514 kts 114°
2026-04-23 07:13 25.79694 84.38681 37761 ft 515 kts 114°
2026-04-23 07:14 25.77505 84.46246 37759 ft 515 kts 114°
2026-04-23 07:14 25.75308 84.53824 37758 ft 516 kts 114°
2026-04-23 07:15 25.73105 84.61405 37754 ft 517 kts 114°
2026-04-23 07:15 25.70896 84.68991 37749 ft 517 kts 114°
2026-04-23 07:16 25.68678 84.76589 37751 ft 518 kts 115°
2026-04-23 07:16 25.66457 84.84185 37748 ft 519 kts 115°
2026-04-23 07:17 25.64227 84.91793 37749 ft 519 kts 115°
2026-04-23 07:17 25.61994 84.99399 37745 ft 519 kts 115°
2026-04-23 07:18 25.59707 85.06920 37736 ft 514 kts 121°
2026-04-23 07:18 25.57919 85.10298 37735 ft 491 kts 139°
2026-04-23 07:18 25.55694 85.13035 37751 ft 486 kts 142°
2026-04-23 07:19 25.51063 85.18504 37746 ft 486 kts 143°
2026-04-23 07:19 25.46384 85.23898 37744 ft 486 kts 144°
2026-04-23 07:20 25.41689 85.29280 37744 ft 486 kts 144°
2026-04-23 07:20 25.36995 85.34651 37747 ft 486 kts 144°
2026-04-23 07:21 25.32298 85.40020 37740 ft 486 kts 144°
2026-04-23 07:21 25.27595 85.45390 37742 ft 486 kts 144°
2026-04-23 07:22 25.23683 85.49851 37741 ft 486 kts 144°
2026-04-23 07:22 25.18970 85.55220 37748 ft 487 kts 144°
2026-04-23 07:23 25.14255 85.60585 37744 ft 487 kts 144°
2026-04-23 07:23 25.09533 85.65952 37748 ft 488 kts 144°
2026-04-23 07:24 25.04836 85.71373 37753 ft 489 kts 143°
2026-04-23 07:24 25.00150 85.76809 37750 ft 489 kts 143°
2026-04-23 07:25 24.95456 85.82245 37746 ft 490 kts 143°
2026-04-23 07:25 24.90757 85.87680 37756 ft 490 kts 143°
2026-04-23 07:26 24.86054 85.93113 37744 ft 490 kts 143°
2026-04-23 07:26 24.81349 85.98540 37759 ft 490 kts 143°
2026-04-23 07:27 24.76643 86.03964 37755 ft 490 kts 143°
2026-04-23 07:27 24.71937 86.09382 37762 ft 490 kts 143°
2026-04-23 07:28 24.67225 86.14799 37754 ft 490 kts 143°
2026-04-23 07:28 24.62515 86.20207 37746 ft 490 kts 143°
2026-04-23 07:29 24.57805 86.25611 37760 ft 490 kts 143°
2026-04-23 07:29 24.53092 86.31011 37765 ft 489 kts 143°
2026-04-23 07:30 24.48412 86.36366 37762 ft 489 kts 143°
2026-04-23 07:30 24.43693 86.41761 37768 ft 490 kts 143°
2026-04-23 07:31 24.38970 86.47153 37767 ft 490 kts 143°
2026-04-23 07:31 24.34246 86.52541 37765 ft 490 kts 143°
2026-04-23 07:32 24.29513 86.57934 37719 ft 491 kts 143°
2026-04-23 07:32 24.27161 86.60614 37247 ft 485 kts 143°
2026-04-23 07:32 24.24833 86.63280 36637 ft 484 kts 142°
2026-04-23 07:32 24.22516 86.65945 36062 ft 482 kts 141°
2026-04-23 07:33 24.20211 86.68591 35600 ft 478 kts 141°
2026-04-23 07:33 24.17923 86.71216 35111 ft 475 kts 141°
2026-04-23 07:33 24.15638 86.73814 34594 ft 471 kts 143°
2026-04-23 07:33 24.13071 86.75941 33933 ft 456 kts 160°
2026-04-23 07:34 24.10184 86.77201 33320 ft 442 kts 170°
2026-04-23 07:34 24.07257 86.78202 32837 ft 438 kts 170°
2026-04-23 07:34 24.04353 86.79158 32364 ft 434 kts 170°
2026-04-23 07:34 24.01465 86.80081 31884 ft 431 kts 170°
2026-04-23 07:35 23.98588 86.80982 31391 ft 428 kts 169°
2026-04-23 07:35 23.95741 86.81866 30913 ft 423 kts 169°
2026-04-23 07:35 23.92944 86.82730 30445 ft 412 kts 168°
2026-04-23 07:35 23.90216 86.83571 30021 ft 402 kts 168°
2026-04-23 07:36 23.87560 86.84388 29564 ft 392 kts 167°
2026-04-23 07:36 23.84963 86.85186 29095 ft 383 kts 167°
2026-04-23 07:36 23.82469 86.86112 28625 ft 377 kts 155°
2026-04-23 07:36 23.80311 86.87779 28238 ft 388 kts 136°
2026-04-23 07:37 23.78613 86.90096 27933 ft 393 kts 126°
2026-04-23 07:37 23.77057 86.92570 27535 ft 396 kts 125°
2026-04-23 07:37 23.75526 86.95067 27177 ft 395 kts 124°
2026-04-23 07:37 23.74022 86.97563 26794 ft 393 kts 124°
2026-04-23 07:38 23.72534 87.00050 26417 ft 390 kts 123°
2026-04-23 07:38 23.71084 87.02492 26073 ft 387 kts 123°
2026-04-23 07:38 23.69606 87.04985 25694 ft 385 kts 123°
2026-04-23 07:38 23.68159 87.07425 25335 ft 382 kts 123°
2026-04-23 07:39 23.66739 87.09818 24983 ft 379 kts 123°
2026-04-23 07:39 23.65312 87.12223 24632 ft 377 kts 123°
2026-04-23 07:39 23.63893 87.14612 24276 ft 374 kts 123°
2026-04-23 07:39 23.62484 87.16983 23926 ft 371 kts 122°
2026-04-23 07:40 23.61085 87.19338 23575 ft 369 kts 122°
2026-04-23 07:40 23.59695 87.21675 23195 ft 366 kts 122°
2026-04-23 07:40 23.58315 87.23994 22771 ft 363 kts 122°
2026-04-23 07:40 23.56944 87.26298 22416 ft 361 kts 122°
2026-04-23 07:41 23.55580 87.28588 22064 ft 359 kts 122°
2026-04-23 07:41 23.54224 87.30864 21718 ft 357 kts 122°
2026-04-23 07:41 23.52876 87.33126 21374 ft 355 kts 122°
2026-04-23 07:41 23.51534 87.35377 21028 ft 353 kts 122°
2026-04-23 07:42 23.50201 87.37612 20684 ft 351 kts 122°
2026-04-23 07:42 23.48877 87.39830 20341 ft 349 kts 122°
2026-04-23 07:42 23.47559 87.42038 20000 ft 346 kts 122°
2026-04-23 07:42 23.46248 87.44233 19658 ft 344 kts 122°
2026-04-23 07:43 23.44945 87.46413 19316 ft 342 kts 122°
2026-04-23 07:43 23.43650 87.48579 18978 ft 340 kts 122°
2026-04-23 07:43 23.42364 87.50728 18638 ft 338 kts 122°
2026-04-23 07:43 23.41084 87.52869 18300 ft 336 kts 122°
2026-04-23 07:44 23.39812 87.54995 17960 ft 334 kts 122°
2026-04-23 07:44 23.38549 87.57103 17579 ft 332 kts 122°
2026-04-23 07:44 23.37288 87.59204 17224 ft 331 kts 123°
2026-04-23 07:44 23.35715 87.60999 16824 ft 328 kts 143°
2026-04-23 07:45 23.33875 87.62409 16523 ft 319 kts 143°
2026-04-23 07:45 23.32088 87.63794 16217 ft 312 kts 143°
2026-04-23 07:45 23.30303 87.65165 15886 ft 318 kts 144°
2026-04-23 07:45 23.28479 87.66557 15569 ft 323 kts 144°
2026-04-23 07:46 23.26633 87.67961 15236 ft 324 kts 144°
2026-04-23 07:46 23.24808 87.69346 14919 ft 324 kts 144°
2026-04-23 07:46 23.22964 87.70746 14596 ft 323 kts 144°
2026-04-23 07:46 23.21123 87.72142 14269 ft 322 kts 144°
2026-04-23 07:47 23.19290 87.73530 13937 ft 321 kts 144°
2026-04-23 07:47 23.17463 87.74915 13611 ft 319 kts 144°
2026-04-23 07:47 23.15646 87.76291 13257 ft 318 kts 144°
2026-04-23 07:47 23.13829 87.77667 12911 ft 318 kts 144°
2026-04-23 07:48 23.12018 87.79035 12574 ft 316 kts 144°
2026-04-23 07:48 23.10216 87.80400 12255 ft 316 kts 145°
2026-04-23 07:48 23.08420 87.81760 11929 ft 315 kts 145°
2026-04-23 07:48 23.06624 87.83117 11609 ft 314 kts 145°
2026-04-23 07:49 23.04834 87.84471 11285 ft 313 kts 145°
2026-04-23 07:49 23.03051 87.85819 10968 ft 312 kts 145°
2026-04-23 07:49 23.01272 87.87162 10649 ft 311 kts 145°
2026-04-23 07:49 22.99497 87.88502 10330 ft 310 kts 146°
2026-04-23 07:50 22.97731 87.89836 10003 ft 309 kts 146°
2026-04-23 07:50 22.95974 87.91162 9801 ft 304 kts 146°
2026-04-23 07:50 22.94241 87.92469 9536 ft 303 kts 146°
2026-04-23 07:50 22.92518 87.93770 9198 ft 301 kts 146°
2026-04-23 07:51 22.90950 87.95250 8835 ft 299 kts 126°
2026-04-23 07:51 22.90090 87.97260 8496 ft 293 kts 100°
2026-04-23 07:51 22.89811 87.99442 8233 ft 292 kts 95°
2026-04-23 07:51 22.89566 88.01624 7939 ft 291 kts 95°
2026-04-23 07:52 22.89333 88.03794 7636 ft 289 kts 95°
2026-04-23 07:52 22.89108 88.05954 7337 ft 288 kts 95°
2026-04-23 07:52 22.88887 88.08103 7043 ft 286 kts 95°
2026-04-23 07:52 22.88679 88.10238 6755 ft 284 kts 92°
2026-04-23 07:53 22.88737 88.12364 6627 ft 282 kts 85°
2026-04-23 07:53 22.88847 88.14489 6556 ft 283 kts 85°
2026-04-23 07:53 22.88940 88.16618 6456 ft 282 kts 86°
2026-04-23 07:53 22.89023 88.18740 6371 ft 282 kts 86°
2026-04-23 07:54 22.89099 88.20865 6274 ft 281 kts 86°
2026-04-23 07:54 22.89124 88.21577 6244 ft 281 kts 86°
2026-04-23 07:54 22.89167 88.22883 6182 ft 275 kts 86°
2026-04-23 07:54 22.89228 88.24765 6095 ft 262 kts 87°
2026-04-23 07:55 22.89290 88.26680 6011 ft 248 kts 87°
2026-04-23 07:55 22.89350 88.28536 5915 ft 246 kts 87°
2026-04-23 07:55 22.89409 88.30396 5840 ft 247 kts 87°
2026-04-23 07:55 22.89467 88.32254 5761 ft 247 kts 87°
2026-04-23 07:56 22.89571 88.34080 5662 ft 245 kts 77°
2026-04-23 07:56 22.90297 88.35730 5542 ft 239 kts 45°
2026-04-23 07:56 22.91619 88.36730 5461 ft 235 kts 18°
2026-04-23 07:56 22.93206 88.37074 5419 ft 234 kts
2026-04-23 07:57 22.94752 88.37265 5353 ft 233 kts
2026-04-23 07:57 22.96372 88.37446 5257 ft 235 kts
2026-04-23 07:57 22.97999 88.37616 5175 ft 235 kts
2026-04-23 07:57 22.99553 88.38134 5046 ft 237 kts 33°
2026-04-23 07:58 23.00599 88.39492 4913 ft 239 kts 69°
2026-04-23 07:58 23.00767 88.41265 4859 ft 239 kts 103°
2026-04-23 07:58 23.00048 88.42864 4808 ft 237 kts 135°
2026-04-23 07:58 22.98709 88.43843 4759 ft 233 kts 165°
2026-04-23 07:59 22.97122 88.44053 4700 ft 230 kts 181°
2026-04-23 07:59 22.95518 88.44102 4615 ft 229 kts 181°
2026-04-23 07:59 22.93940 88.44139 4536 ft 226 kts 179°
2026-04-23 07:59 22.92433 88.44567 4431 ft 223 kts 152°
2026-04-23 08:00 22.91262 88.45576 4370 ft 209 kts 139°
2026-04-23 08:00 22.90191 88.46653 4056 ft 212 kts 143°
2026-04-23 08:00 22.88869 88.47321 3578 ft 212 kts 171°
2026-04-23 08:00 22.87403 88.47386 3131 ft 212 kts 186°
2026-04-23 08:01 22.85932 88.47204 2695 ft 215 kts 187°
2026-04-23 08:01 22.84435 88.47012 2280 ft 217 kts 186°
2026-04-23 08:01 22.82955 88.46834 2054 ft 209 kts 185°
2026-04-23 08:01 22.81567 88.46672 2005 ft 190 kts 186°
2026-04-23 08:02 22.80320 88.46523 2095 ft 171 kts 187°
2026-04-23 08:02 22.79170 88.46391 2125 ft 165 kts 187°
2026-04-23 08:02 22.78037 88.46260 2142 ft 161 kts 186°
2026-04-23 08:02 22.76944 88.46134 1952 ft 156 kts 187°
2026-04-23 08:03 22.75882 88.46006 1733 ft 151 kts 187°
2026-04-23 08:03 22.74847 88.45881 1572 ft 149 kts 187°
2026-04-23 08:03 22.73822 88.45760 1418 ft 148 kts 186°
2026-04-23 08:03 22.72800 88.45639 1196 ft 147 kts 187°
2026-04-23 08:04 22.71785 88.45519 958 ft 146 kts 187°
2026-04-23 08:04 22.70772 88.45401 777 ft 147 kts 187°
2026-04-23 08:04 22.69761 88.45281 587 ft 146 kts 187°
2026-04-23 08:04 22.68752 88.45165 379 ft 147 kts 187°
2026-04-23 08:05 22.67732 88.45049 163 ft 148 kts 186°
2026-04-23 08:05 22.66737 88.44930 33 ft 139 kts 187°
2026-04-23 08:05 22.65961 88.44836 31 ft 82 kts 186°
2026-04-23 08:05 22.65487 88.44780 31 ft 65 kts 186°
2026-04-23 08:06 22.65097 88.44738 28 ft 55 kts 188°
2026-04-23 08:06 22.64831 88.44610 28 ft 33 kts 214°
2026-04-23 08:06 22.64671 88.44492 30 ft 15 kts 214°
2026-04-23 08:06 22.64655 88.44448 30 ft 7 kts 277°
2026-04-23 08:07 22.64660 88.44389 30 ft 9 kts 261°
2026-04-23 08:07 22.64606 88.44359 30 ft 11 kts 186°
2026-04-23 08:07 22.64521 88.44350 31 ft 14 kts 186°
2026-04-23 08:07 22.64465 88.44331 31 ft 6 kts 245°
2026-04-23 08:08 22.64467 88.44276 31 ft 9 kts 277°
2026-04-23 08:08 22.64474 88.44201 31 ft 11 kts 273°
2026-04-23 08:08 22.64479 88.44112 31 ft 10 kts 275°
2026-04-23 08:08 22.64481 88.44090 31 ft 0 kts 276°